Tracking 20092 objects as of 14-Dec-2019
HD Live streaming from Space Station
objects crossing your sky now

COSMOS 2251 DEB

Track COSMOS 2251 DEB now!
10-day predictions


NORAD ID: 33905
Int'l Code: 1993-036DJ
Perigee: 760.0 km
Apogee: 853.8 km
Inclination: 73.9 °
Period: 100.9 minutes
Semi major axis: 7177 km
RCS: 0.025 m2 (small)
Launch date: June 16, 1993
Source: Commonwealth of Independent States (former USSR) (CIS)
Launch site: PLESETSK MISSILE AND SPACE COMPLEX (PKMTR)

Note: This is SATELLITE DEBRIS
aabbcc
Your satellite tracking list
Your tracking list is empty




NASA's NSSDC Master Catalog

Two Line Element Set (TLE):
1 33905U 93036DJ  19346.53325635 +.00000276 +00000-0 +12041-3 0  9992
2 33905 073.8899 017.9155 0065383 346.4659 129.8726 14.27601227563524
Source of the keplerian elements: AFSPC